Location: Leeds
(37.2390°N, 113.3580°W)
Time: 17:47:51
(UTC-06:00)

ISS - All Passes

Search period start: 29 March 2015 00:00
Search period end: 08 April 2015 00:00
Orbit: 396 x 406 km, 51.6° (Epoch: 29 March)

Date Brightness Start Highest point End Pass type
(mag) Time Alt. Az. Time Alt. Az. Time Alt. Az.
29 Mar - 01:06:46 10° WNW 01:09:06 18° NNW 01:11:23 10° NNE night (unlit)
29 Mar - 05:58:42 10° NNW 06:01:36 30° NNE 06:04:31 10° E visible
29 Mar - 07:35:15 10° WNW 07:37:55 23° SW 07:40:32 10° S daylight
29 Mar - 22:36:23 10° S 22:39:09 26° SE 22:41:57 10° ENE night (unlit)
30 Mar - 00:12:37 10° W 00:15:31 28° NNW 00:18:23 10° NNE night (unlit)
30 Mar - 05:05:40 10° NNW 05:08:02 19° NNE 05:10:25 10° ENE visible
30 Mar - 06:41:29 10° WNW 06:44:38 51° SW 06:47:46 10° SSE visible
30 Mar - 21:44:25 10° SSE 21:45:53 13° SE 21:47:29 10° E night (unlit)
30 Mar - 23:18:48 10° WSW 23:22:00 53° NW 23:25:12 10° NE night (unlit)
31 Mar - 00:57:54 10° NW 00:59:01 11° NNW 01:00:05 10° N night (unlit)
31 Mar - 04:12:51 10° N 04:14:20 13° NNE 04:15:53 10° NE visible
31 Mar - 05:48:02 10° NW 05:51:15 70° NE 05:54:28 10° SE visible
31 Mar - 22:25:19 10° SW 22:28:33 70° SE 22:31:48 10° NE night (unlit)
01 Apr - 00:03:07 10° WNW 00:05:17 16° NNW 00:07:24 10° NNE night (unlit)
01 Apr - 04:54:45 10° NW 04:57:45 34° NE 05:00:45 10° ESE visible
01 Apr - 06:31:32 10° W 06:34:00 20° SW 06:36:24 10° S visible
01 Apr - 21:32:15 10° SSW 21:35:10 31° SE 21:38:07 10° ENE visible
01 Apr - 23:08:48 10° W 23:11:35 25° NNW 23:14:22 10° NNE night (unlit)
02 Apr - 04:01:36 10° NNW 04:04:06 20° NNE 04:06:38 10° E night (unlit)
02 Apr - 05:37:34 10° WNW 05:40:39 42° SW 05:43:42 10° SSE visible
02 Apr - 20:39:54 10° SSE 20:41:49 15° SE 20:43:49 10° E visible
02 Apr - 22:14:49 10° WSW 22:17:58 46° NW 22:21:08 10° NE visible
02 Apr - 23:54:19 10° NNW 23:55:03 10° NNW 23:55:44 10° N night (unlit)
03 Apr - 03:08:38 10° N 03:10:21 14° NNE 03:12:08 10° NE night (unlit)
03 Apr - 04:43:58 10° NW 04:47:12 84° NE 04:50:25 10° SE night (unlit)
03 Apr - 21:21:10 10° SW 21:24:25 84° SE 21:27:42 10° NE visible
03 Apr - 22:59:13 10° WNW 23:01:13 15° NNW 23:03:09 10° NNE visible
04 Apr - 03:50:33 10° NW 03:53:38 39° NE 03:56:41 10° ESE night (unlit)
04 Apr - 05:27:35 10° W 05:29:49 17° SW 05:31:58 10° S night (unlit)
04 Apr - 20:27:55 10° SSW 20:30:57 36° SE 20:34:00 10° ENE visible
04 Apr - 22:04:44 10° W 22:07:25 23° NNW 22:10:05 10° NNE visible
05 Apr - 02:57:17 10° NNW 02:59:56 23° NNE 03:02:35 10° E night (unlit)
05 Apr - 04:33:24 10° WNW 04:36:24 36° SW 04:39:23 10° SSE night (unlit)
05 Apr - 19:35:17 10° S 19:37:30 17° SE 19:39:48 10° E daylight
05 Apr - 21:10:36 10° WSW 21:13:42 39° NW 21:16:48 10° NE visible
06 Apr - 02:04:11 10° NNW 02:06:07 15° NNE 02:08:05 10° ENE night (unlit)
06 Apr - 03:39:38 10° NW 03:42:53 83° SW 03:46:06 10° SE night (unlit)
06 Apr - 20:16:48 10° SW 20:20:04 83° NW 20:23:20 10° NE daylight
06 Apr - 21:55:05 10° NW 21:56:54 14° NNW 21:58:39 10° N visible
07 Apr - 01:11:33 10° N 01:12:11 10° NNE 01:12:53 10° NNE night (unlit)
07 Apr - 02:46:08 10° NW 02:49:15 45° NE 02:52:23 10° ESE night (unlit)
07 Apr - 04:23:27 10° W 04:25:23 15° SW 04:27:14 10° SSW night (unlit)
07 Apr - 19:23:22 10° SSW 19:26:29 43° SE 19:29:36 10° ENE daylight
07 Apr - 21:00:26 10° W 21:03:01 21° NNW 21:05:33 10° NNE visible
